Location: Unspecified
(47.4992°N, 121.7766°W)
Time: 08:28:49
(UTC-08:00)

ISS - Visible Passes

Search period start: 13 January 2025 00:00
Search period end: 23 January 2025 00:00
Orbit: 415 x 418 km, 51.6° (Epoch: 13 January)

Date Brightness Start Highest point End Pass type
(mag) Time Alt. Az. Time Alt. Az. Time Alt. Az.
13 Jan -2.2 18:20:20 10° SSW 18:22:58 22° SE 18:23:00 22° SE visible
14 Jan -1.5 17:32:58 10° SSE 17:34:47 14° SE 17:36:36 10° ESE visible
14 Jan -2.2 19:07:43 10° WSW 19:09:44 33° SW 19:09:44 33° SW visible
15 Jan -3.4 18:19:28 10° SW 18:22:42 48° SSE 18:23:28 39° ESE visible
15 Jan -0.2 19:56:13 10° W 19:56:23 11° W 19:56:23 11° W visible
16 Jan -2.6 17:31:22 10° SSW 17:34:22 31° SE 17:37:07 12° E visible
16 Jan -2.5 19:07:40 10° W 19:10:02 40° W 19:10:02 40° W visible
17 Jan -3.8 18:19:08 10° WSW 18:22:29 82° NNW 18:23:37 39° ENE visible
17 Jan -0.3 19:56:20 10° WNW 19:56:31 11° WNW 19:56:31 11° WNW visible
18 Jan -3.7 17:30:41 10° SW 17:34:00 70° SSE 17:37:08 11° ENE visible
18 Jan -2.3 19:07:41 10° W 19:10:02 34° NW 19:10:02 34° NW visible
19 Jan -3.3 18:19:02 10° W 18:22:19 50° NNW 18:23:31 32° NE visible
19 Jan -0.3 19:56:15 10° WNW 19:56:25 11° WNW 19:56:25 11° WNW visible
20 Jan -3.5 17:30:23 10° WSW 17:33:42 63° NNW 17:36:58 11° ENE visible
20 Jan -2.2 19:07:36 10° WNW 19:09:52 31° NW 19:09:52 31° NW visible
21 Jan -3.0 18:18:55 10° WNW 18:22:06 39° N 18:23:17 28° NE visible
21 Jan -0.4 19:55:55 10° WNW 19:56:10 12° WNW 19:56:10 12° WNW visible
22 Jan -3.1 17:30:11 10° W 17:33:25 43° N 17:36:38 10° ENE visible
22 Jan -2.4 19:07:19 10° WNW 19:09:35 34° NW 19:09:35 34° NW visible
